Overview Statistics Trail Chart Weather Telemetry Raw packets
 

This is the latest recevied weather packets stored in our database for station/object KA1AL. If no packets are shown the sender has not sent any weather packets the latest 10 day(s).

<< 47 48 49 50 51 52 53 >>
Time Temp. Humidity Pressure Rain* Wind** Luminosity Snow
1777364198 3.33° C 92% 1023.2 hPa 0 mm - 0 W/m² -
1777363895 2.78° C 94% 1023.1 hPa 0 mm - 0 W/m² -
1777363592 2.78° C 95% 1023.2 hPa 0 mm - 0 W/m² -
1777363289 2.78° C 93% 1023.2 hPa 0 mm - 0 W/m² -
1777362986 3.33° C 92% 1023.2 hPa 0 mm - 0 W/m² -
1777362683 3.33° C 91% 1023.1 hPa 0 mm - 0 W/m² -
1777362380 3.33° C 90% 1023.3 hPa 0 mm - 0 W/m² -
1777362077 3.89° C 89% 1023.5 hPa 0 mm - 0 W/m² -
1777361774 4.44° C 88% 1023.2 hPa 0 mm - 0 W/m² -
1777361471 4.44° C 88% 1023.2 hPa 0 mm - 0 W/m² -
1777361169 4.44° C 86% 1023.2 hPa 0 mm - 0 W/m² -
1777360867 4.44° C 83% 1023.3 hPa 0 mm - 0 W/m² -
1777360564 4.44° C 83% 1023.2 hPa 0 mm - 0 W/m² -
1777360260 4.44° C 82% 1023.1 hPa 0 mm - 0 W/m² -
1777359957 5° C 81% 1023.5 hPa 0 mm - 0 W/m² -
1777359654 5° C 80% 1023.2 hPa 0 mm - 0 W/m² -
1777359350 5° C 80% 1023.5 hPa 0 mm - 0 W/m² -
1777359048 5° C 82% 1023.6 hPa 0 mm - 0 W/m² -
1777358746 5° C 84% 1023.6 hPa 0 mm - 0 W/m² -
1777358443 5° C 84% 1023.9 hPa 0 mm - 0 W/m² -
1777358141 5° C 84% 1023.8 hPa 0 mm - 0 W/m² -
1777357838 5° C 85% 1023.8 hPa 0 mm - 0 W/m² -
1777356929 5° C 87% 1024.1 hPa 0 mm - 0 W/m² -
1777356626 5° C 87% 1023.9 hPa 0 mm - 0 W/m² -
1777355716 5° C 87% 1023.7 hPa 0 mm - 0 W/m² -

* Rain latest hour (hover to see other rain measurements)
** Current wind speed in m/s (hover to see current wind gust speed)